Startpagina
METAR-TAF:

METAR-TAF

Vliegvelden :

Aeropuerto Juan Mendoza

Oruro, Bolivia

breedte: 17-58S, lengte: 067-04W, hoogte: 3072 m

Actueel weer

Dit bericht is 35 minuten geleden gemaakt, om 12:00 UTC
Weinig wind
Temperatuur -3°C
Vochtigheid 68%
Druk 1036 hPa
Zicht: 2500 m
rook

METAR: SLOR 161200Z 00000KT 2500N FU NSC M03/M08 Q1036

Tijdstip: 08:35 (12:35 UTC)


TAF: ontbreekt

Waarnemingen en weersverwachtingen van meer dan 4000 vliegvelden (METAR en TAF).

De beschikbare stations zijn de gele en rode punten op de kaart.

Ga met uw muis naar het station om de naam te zien.

Klik dan om waarnemingen en weersverwachtingen te zien.

kaart wijzigen: klik op de groene knoppen met een zwart kruis om in te zoomen, op de groene knop met een streepje om uit te zoomen of op de groene pijlen voor aangrenzende kaarten.


METAR-TAF: